Flag for Switzerland Weather past 2 weeks in Biel, Switzerland

Now
53 °F

Cool.


Feels Like: 48 °F
Forecast: 44 / 54 °F
Wind: 21 mph from West

Location: Grenchen

Current Time: Mar 30, 2015 at 5:16:00 PM

Latest Report: Mar 30, 2015 at 4:00 PM


Visibility: N/A

Pressure: 29.94 "Hg

Humidity: 72%

Dew point: 44 °F

Location of BielLocation

Historic Weather in Biel — Graph

°F

Biel temperature yesterday

Maximum temperature yesterday: 52 °F (at 11:00 AM)
Minimum temperature yesterday: 46 °F (at 1:00 AM)
Average temperature yesterday: 48 °F

Past Weeks' High & Low Weather Summary

 TemperatureHumidityPressure
High64 °F (Mar 18, 4:00 PM)100% (Mar 24, 3:00 AM)30.36 "Hg (Mar 24, 3:00 AM)
Low29 °F (Mar 28, 6:00 AM)35% (Mar 17, 4:00 PM)29.62 "Hg (Mar 25, 1:00 PM)
Average45 °F77%30.06 "Hg
* Reported Mar 15 2:00 PM — Mar 30 3:00 PM, Biel, Weather by CustomWeather, © 2015

Note: Actual official high and low records may vary slightly from our data, if they occured in-between our weather recording intervals... More about our weather records

Advertising

Biel weather history for previous 24 hours

 ConditionsComfort  
Time TempWeatherWind HumidityBarometerVisibility
3:00 PM
Mon, Mar 30
55 °FCool.21 mph73%29.90 "HgN/A
2:00 PM53 °FCool.21 mph77%29.88 "HgN/A
1:00 PM53 °FCool.14 mph89%29.87 "HgN/A
12:00 PM51 °FCool.15 mph94%29.86 "HgN/A
11:00 AM50 °FCool.21 mph94%29.83 "HgN/A
10:00 AM48 °FCool.16 mph97%29.81 "HgN/A
9:00 AM47 °FCool.20 mph98%29.80 "HgN/A
8:00 AM47 °FCool.15 mph98%29.79 "HgN/A
7:00 AM47 °FCool.18 mph97%29.78 "HgN/A
6:00 AM47 °FCool.18 mph97%29.77 "HgN/A
5:00 AM47 °FCool.17 mph96%29.77 "HgN/A
4:00 AM47 °FCool.17 mph96%29.77 "HgN/A
3:00 AM48 °FCool.14 mph97%29.79 "HgN/A
2:00 AM48 °FCool.15 mph97%29.82 "HgN/A
1:00 AM48 °FCool.15 mph96%29.83 "HgN/A
12:00 AM48 °FCool.14 mph96%29.85 "HgN/A
11:00 PM
Sun, Mar 29
48 °FCool.17 mph96%29.87 "HgN/A
10:00 PM48 °FCool.22 mph96%29.88 "HgN/A
9:00 PM48 °FCool.17 mph97%29.88 "HgN/A
8:00 PM48 °FCool.20 mph95%29.89 "HgN/A
7:00 PM48 °FCool.21 mph94%29.91 "HgN/A
6:00 PM48 °FCool.16 mph91%29.94 "HgN/A
5:00 PM48 °FCool.20 mph94%29.97 "HgN/A
Weather by CustomWeather, © 2015

See weather overviewHow to use our weather pages